Powrót do katalogu

DELTA 1 DEB

AktywnyUNKNOWN
NORAD 19008·DEBRIS·🇺🇸 United States

Wystrzelony Aug 16, 1984 z Cape Canaveral Space Force Station

Loading…

Następne Przeloty (najbliższe 24 godziny)

TLE

ŚwieżeSource: Space-Track

Epoka: Sep 14, 2026, 02:27 UTC

1 19008U 84088G   26257.10208503  .00001413  00000-0  79547-3 0  9991
2 19008  28.7333 183.1999 1783758 352.2329   5.3694 11.22326291579424

Śledź DELTA 1 DEB w czasie rzeczywistym z AllMySat

Download on the App Store